www.pogodaiklimat.ru

Погода и климат >> Архив погоды >> Россия >> Чукотка >> Остров Врангеля


АРХИВ ПОГОДЫ на Острове Врангеля

Время (UTC), дата Ветер
(напр.,м/с)
 
Видим.   Явления Облачность Т
(С)
Тd
(С)
f
(%)
Тe
(С)
Тes
(С)
Комфортность P
(гПа)
Po
(гПа)
Тmin
(С)
Tmax
(С)
R
(мм)
R24
(мм)
S
(см)
06 19.08 В 3
{4}
200 м туман ?/? +7.3 +6.8 97 +4 +4 1027.3 1024.7 +8.6
12 19.08 СВ 3
{5}
200 м туман ?/? +4.6 +4.3 98 +1 +1 1028.0 1025.3
18 19.08 С 3
{4}
200 м туман ?/? +3.8 +3.6 99 -0 -0 1029.0 1026.3 +3.8
00 20.08 ЮЗ 2
{4}
4000 м дымка {туман} 10/10 600 м
[Sc]
+5.6 +5.0 96 +3 +3 1029.1 1026.4
06 20.08 ЮЗ 3
{5}
200 м туман ?/? +5.2 +4.9 98 +2 +2 1027.3 1024.7 +6.3
12 20.08 ЮЗ 2
{4}
200 м туман ?/? +3.2 +2.9 98 -0 -0 1025.6 1023.0
18 20.08 З 3
{5}
200 м туман ?/? +2.0 +2.0 100 -3 -3 1022.5 1019.9 +1.7
00 21.08 ЮЗ 3
{5}
20 км {туман} 9/8 600 м
[Sc Ac trans]
+4.4 +4.1 98 +1 +1 1018.9 1016.3
06 21.08 ЮЗ 3
{7}
4000 м дымка 8/0
[Ac trans Ci fib]
+4.9 +4.4 97 +1 +1 1014.8 1012.2 +5.6
12 21.08 СЗ 1
{5}
200 м туман ?/? +3.0 +3.0 100 +1 +1 1011.6 1009.0
18 21.08 З 1
{2}
20 км в посл. час туман 8/3 600 м
[Sc Ac trans Ci fib]
+4.3 +4.0 98 +3 +3 1010.0 1007.4 +2.5
00 22.08 С 17-22
{22}
20 км 9/8 300 м
[Sc Ac lent]
+4.6 +2.2 84 -4 -4 1011.2 1008.6
06 22.08 С 12-15
{22}
20 км 9/9 300 м
[Sc]
+4.0 +2.7 91 -3 -3 1016.2 1013.6 +6.4
12 22.08 СЗ 7
{16}
20 км 4/0
[Ci fib]
+2.6 +0.3 85 -4 -4 1017.8 1015.2
18 22.08 З 1
{9}
20 км 9/8 600 м
[Sc Ac trans]
+4.8 +2.8 87 +3 +4 1017.8 1015.2 +2.4
00 23.08 СЗ 10-13
{13}
20 км 9/0
[Ac trans Ci fib]
+13.0 +7.0 67 +10 +10 1015.9 1013.3
06 23.08 СЗ 11-13
{14}
20 км 9/4 600 м
[Sc Ac lent Cc]
+10.0 +5.9 76 +5 +5 1014.9 1012.3 +14.6
12 23.08 ЮЗ 8-12
{19}
20 км 10/0
[As trans]
+5.7 +4.3 91 0 0 1016.6 1014.0
18 23.08 СВ 2
{12}
20 км 10/10 600 м
[Sc]
+5.7 +4.3 91 +3 +3 1016.1 1013.5 +5.5
00 24.08 ЮЗ 3
{4}
20 км 10/8 600 м
[Sc As op]
+6.3 +4.1 86 +3 +3 1014.7 1012.1
06 24.08 ЮЗ 2
{4}
20 км в посл. час морось 10/10 100 м
[St]
+5.5 +5.2 98 +3 +3 1012.3 1009.7 +7.0 0.3
12 24.08 З 1
{2}
20 км 10/10 200 м
[Sc]
+5.3 +4.7 96 +4 +4 1010.8 1008.2
18 24.08 ЮЗ 2
{4}
20 км 10/10 200 м
[Sc]
+4.5 +3.9 96 +2 +2 1009.5 1006.9 +4.1
00 25.08 ЮЗ 5
{7}
20 км 10/10 200 м
[Sc]
+4.7 +3.9 95 -0 -0 1008.9 1006.3
06 25.08 ЮЗ 3
{6}
200 м туман ?/? +4.7 +4.4 98 +1 +1 1008.4 1005.8 +5.1
12 25.08 З 1
{4}
200 м туман ?/? +3.8 +3.5 98 +2 +2 1008.6 1006.0
18 25.08 С 1
{3}
200 м туман ?/? +3.6 +3.6 100 +2 +2 1007.4 1004.8 +3.3
00 26.08 В 2
{3}
20 км {туман} 9/3 200 м
[St Ac trans Ci fib]
+5.8 +5.0 95 +3 +5 1006.5 1003.9

 

Местоположение метеостанции Остров Врангеля (Чукотка, Россия): широта 70.98 долгота -178.00 высота над уровнем моря 21 м.

В архиве по умолчанию представлена погода на Острове Врангеля за последнюю неделю. Архивные данные за месяц целиком и за предыдущие месяцы, начиная с января 2011 года, Вы можете получить, выбрав интересующий диапазон дат из раскрывающегося списка и нажав кнопку "Ввод!".


*Определитесь, кто Вы:
робот инопланетянин человек

Внимание! Время в таблицах - всемирное. Для получения местного времени необходимо прибавить поправку, которая равна 12 ч.

Смотрите также архив погоды в соседних городах и на ближайших метеорологических станциях:

Погода на Мысе Шмидта (Чукотка, Россия) (238 км)
Погода на Мысе Биллингс (Чукотка, Россия) (265 км)
Погода в Паляваам-Глубокой (Чукотка, Россия) (364 км)
Погода на Мысе Ванкарем (Чукотка, Россия) (369 км)
Погода в Комсомольской (Чукотка, Россия) (404 км)
Погода в Майской (Чукотка, Россия) (423 км)
Погода в Валькаркае (Чукотка, Россия) (423 км)
Погода на 21 км (Чукотка, Россия) (444 км)
Погода в Певеке (Чукотка, Россия) (463 км)
Погода в Чауне (Чукотка, Россия) (489 км)

Пояснения к столбцам:

Ветер - указаны скорость ветра в м/с - средняя за 10 мин, порывы в срок и между сроками (в фигурных скобках) и направление, откуда дует ветер: С - северный, СВ - северо-восточный, В - восточный, ЮВ - юго-восточный, Ю - южный, ЮЗ - юго-западный, З - западный, СЗ - северо-западный.
Видимость - горизонтальная дальность видимости в метрах или километрах. При видимости от 1 до 10 км при отсутствии осадков обычно наблюдается дымка, при ухудшении видимости до 1 км и менее - туман. В сухую погоду видимость может ухудшаться дымом, пылью или мглою.
Явления - указаны атмосферные явления, наблюдавшиеся в срок или в последний час перед сроком; фигурными скобками обозначены явления, наблюдавшиеся между сроками (за 1-3 часа до срока); квадратными скобками обозначены град или гололедные отложения с указанием их диаметра в мм.
Облачность - указаны через наклонную черту общая и нижняя облачность в баллах и высота нижней границы облаков в метрах; квадратными скобками обозначены формы облаков: Ci - перистые, Cs - перисто-слоистые, Cc - перисто-кучевые, Ac - высококучевые, As - высокослоистые, Sc - слоисто-кучевые, Ns - слоисто-дождевые, Cu - кучевые, Cb - кучево-дождевые. Подробнее классификацию облаков см. в Атласе облаков (PDF).
T - Температура воздуха - температура, измеренная на высоте 2 м над землей.
Td - Температура точки росы - температура, при понижении до которой содержащийся в воздухе водяной пар достигнет насыщения.
f - Относительная влажность воздуха - влажноcть воздуха, измеренная на высоте 2 м над землей.
Te - Эффективная температура - температура, которую ощущает одетый по сезону человек в тени. Характеристика душности погоды. При расчете учитывается влияние влажности воздуха и скорости ветра на теплоощущения человека.
Tes - Эффективная температура на солнце - температура, которую ощущает человек, с поправкой на солнечный нагрев. Характеристика знойности погоды. Зависит от высоты солнца над горизонтом, облачности и скорости ветра. Ночью, в пасмурную погоду, а также при ветре 12 м/с и более поправка равна нулю.
P - Атмосферное давление - приведенное к уровню моря атмосферное давление.
Po - Атмосферное давление - измеренное на уровне метеостанции атмосферное давление.
Tmin - Минимальная температура - минимум температуры воздуха на высоте 2 м над землей.
Tmax - Максимальная температура - максимум температуры воздуха на высоте 2 м над землей.
R - Количество осадков - Количество выпавших осадков за период времени, мм. При наведении курсора мыши на число - период времени, за который выпало указанное количество осадков.
R24 - Количество осадков - Количество выпавших осадков за 24 часа, мм.
S - Снежный покров - Высота снежного покрова, см. При наведении курсора мыши на число - состояние снежного покрова и степень покрытия местности в баллах.